Simultaneous Nadir Overpasses (SNOs) Predictions

Prediction of SNOs between AQUA and GOES-15 Satellite Orbit:

Table of predicted SNOs for the next 14.0 days since TLE Epoch: 4/6/2017
Index Date Time (AQUA) AQUA Lat,Lon GOES-15 Lat,Lon Distance(km) Time Diff (sec)
1 04/08/2017 22:29:14 0.36,-133.45 -0.06,-135.39 221.05 80
2 04/09/2017 10:50:29 0.74,-138.60 0.07,-135.38 366.60 80
3 04/11/2017 10:38:15 0.08,-135.64 0.07,-135.41 25.45 80
4 04/13/2017 10:26:00 -0.52,-132.67 0.07,-135.45 315.64 80
5 04/13/2017 22:47:23 -0.58,-137.86 -0.07,-135.48 270.70 80
6 04/15/2017 22:35:08 0.04,-134.89 -0.07,-135.50 69.46 80
7 04/17/2017 22:22:54 0.72,-131.93 -0.07,-135.52 408.93 80
8 04/18/2017 10:44:09 0.39,-137.08 0.07,-135.50 179.82 80
9 04/20/2017 10:31:54 -0.23,-134.11 0.08,-135.51 158.98 80




NCC Satellite Simultaneous Nadir Overpasses (SNOs) Prediction Service
